This demonstration page uses our WeatherBlox Daily Observations layout. Learn more.

39.08367, -84.50855

Hourly Observations for October 27, 2019

Temp ( °F °C ) Dew Point ( °F °C ) Humidity (%) Winds ( mph kmh ) Pressure ( in mb ) Visibility ( mi km ) Precip ( " mm )
12:53 am 00:53 Clear 64 17.8 59 15 84 84 SSW 12 19 29.62 1003 10 16.0934 0 0
1:53 am 01:53 Clear 64 17.8 56 13.3 75 75 SW 17 28 29.64 1004 10 16.0934 0 0
2:53 am 02:53 Partly Cloudy 60 15.6 54 12.2 80 80 SW 16 26 29.67 1005 10 16.0934 0 0
3:19 am 03:19 Mostly Cloudy 60 15.6 54 12.2 80 80 WSW 16 26 29.71 1006 10 16.0934 0 0
3:53 am 03:53 Mostly Cloudy 58 14.4 52 11.1 81 81 SW 12 19 29.71 1006 10 16.0934 0 0
4:53 am 04:53 Cloudy 58 14.4 51 10.6 78 78 WSW 21 33 29.75 1007 10 16.0934 0 0
5:53 am 05:53 Cloudy 57 13.9 50 10 78 78 WSW 21 33 29.79 1009 10 16.0934 0 0
6:53 am 06:53 Cloudy 56 13.3 49 9.4 77 77 WSW 20 31 29.83 1010 10 16.0934 0 0
7:53 am 07:53 Cloudy 55 12.8 49 9.4 80 80 WSW 17 28 29.88 1012 10 16.0934 0 0
8:53 am 08:53 Cloudy 55 12.8 49 9.4 80 80 WSW 10 17 29.92 1013 10 16.0934 0 0
9:53 am 09:53 Cloudy 55 12.8 49 9.4 80 80 W 10 17 29.96 1014 10 16.0934 0 0
10:53 am 10:53 Cloudy 56 13.3 49 9.4 77 77 WSW 8 13 29.98 1015 10 16.0934 0 0
11:53 am 11:53 Cloudy 57 13.9 48 8.9 72 72 W 8 13 30 1016 10 16.0934 0 0
12:53 pm 12:53 Mostly Cloudy 59 15 49 9.4 69 69 SW 8 13 30 1016 10 16.0934 0 0
1:21 pm 13:21 Partly Cloudy 60 15.6 49 9.4 67 67 SSW 8 13 29.97 1015 10 16.0934 0 0
1:33 pm 13:33 Mostly Cloudy 61 16.1 49 9.4 65 65 SSW 8 13 29.97 1015 10 16.0934 0 0
1:46 pm 13:46 Partly Cloudy 61 16.1 48 8.9 63 63 W 10 17 29.97 1015 10 16.0934 0 0
1:53 pm 13:53 Mostly Sunny 61 16.1 48 8.9 63 63 W 7 11 29.99 1016 10 16.0934 0 0
2:53 pm 14:53 Mostly Sunny 64 17.8 48 8.9 56 56 W 9 15 30 1016 10 16.0934 0 0
3:53 pm 15:53 Sunny 64 17.8 47 8.3 54 54 WSW 8 13 30 1016 10 16.0934 0 0
4:53 pm 16:53 Sunny 64 17.8 47 8.3 54 54 SW 6 9 30.01 1016 10 16.0934 0 0
5:53 pm 17:53 Sunny 62 16.7 49 9.4 62 62 SSW 7 11 30.02 1017 10 16.0934 0 0
6:53 pm 18:53 Clear 55 12.8 49 9.4 80 80 S 3 6 30.03 1017 10 16.0934 0 0
7:53 pm 19:53 Clear 51 10.6 49 9.4 92 92 Calm 30.05 1018 10 16.0934 0 0
8:53 pm 20:53 Clear 48 8.9 47 8.3 96 96 Calm 30.06 1018 10 16.0934 0 0
9:53 pm 21:53 Clear with Mist and Fog 47 8.3 47 8.3 100 100 Calm 30.06 1018 4 6.43736 0 0
10:17 pm 22:17 Mostly Clear with Mist and Fog 44 6.7 44 6.7 100 100 Calm 30.06 1018 2.5 4.02335 0 0
10:53 pm 22:53 Mostly Clear with Mist and Fog 43 6.1 43 6.1 100 100 Calm 30.08 1019 2 3.21868 0 0
11:06 pm 23:06 Mostly Cloudy with Fog 44 6.7 44 6.7 100 100 Calm 30.09 1019 0.5 0.80467 0 0
11:16 pm 23:16 Mostly Cloudy with Fog 44 6.7 44 6.7 100 100 Calm 30.09 1019 0.25 0.402335 0 0
11:30 pm 23:30 Mostly Cloudy with Fog 42 5.6 42 5.6 100 100 Calm 30.09 1019 0.5 0.80467 0 0
11:35 pm 23:35 Clear with Fog 44 6.7 43 6.1 96 96 Calm 30.09 1019 0.25 0.402335 0 0
11:49 pm 23:49 Mostly Cloudy with Fog 43 6 43 6 100 100 Calm 30.09 1019 0.25 0.402335 0 0
11:53 pm 23:53 Mostly Cloudy with Fog 43 6.1 42 5.6 97 97 Calm 30.09 1019 0.25 0.402335 0 0

Powered by AerisWeather